Location: Fort Worth, Tx
(32.7431°N, 97.3695°W)
Time: 00:35:21
(UTC-04:00)

BlueWalker 3 - Visible Passes

Search period start: 08 June 2023 00:00
Search period end: 18 June 2023 00:00
Orbit: 494 x 513 km, 53.2° (Epoch: 07 June)

Date Brightness Start Highest point End Pass type
(mag) Time Alt. Az. Time Alt. Az. Time Alt. Az.
08 Jun 5.0 01:40:41 10° N 01:41:42 14° N 01:41:42 14° N visible
09 Jun 4.8 01:20:13 10° N 01:21:32 15° N 01:21:32 15° N visible
10 Jun 4.6 00:59:43 10° N 01:01:25 16° NNE 01:01:25 16° NNE visible
11 Jun 4.4 00:39:13 10° N 00:41:21 17° NNE 00:41:21 17° NNE visible
12 Jun 4.2 00:18:43 10° N 00:21:19 18° NNE 00:21:19 18° NNE visible
12 Jun 4.0 23:58:12 10° N 00:00:56 18° NE 00:01:20 18° NE visible
13 Jun 5.1 01:35:55 10° NW 01:36:00 11° NW 01:36:00 11° NW visible
13 Jun 4.0 23:37:40 10° N 23:40:27 19° NE 23:41:23 17° NE visible
14 Jun 4.8 01:15:26 10° NW 01:16:04 14° WNW 01:16:04 14° WNW visible
14 Jun 4.0 23:17:07 10° NNW 23:19:57 19° NE 23:21:29 16° ENE visible
15 Jun 4.4 00:54:56 10° WNW 00:56:09 19° WNW 00:56:09 19° WNW visible
15 Jun 3.9 22:56:35 10° NNW 22:59:27 20° NE 23:01:37 13° ENE visible
16 Jun 3.9 00:34:26 10° WNW 00:36:18 25° WNW 00:36:18 25° WNW visible
16 Jun 3.9 22:36:01 10° NNW 22:38:55 20° NE 22:41:48 10° E visible
17 Jun 3.3 00:13:55 10° WNW 00:16:29 33° W 00:16:29 33° W visible
17 Jun 3.8 22:15:27 10° NNW 22:18:24 21° NE 22:21:21 10° E visible
